QPF
0.00 0.00 0.00 0.00 0.00 0.00 0.00 0.00 0.00 0.00 0.00 0.00 0.00 0.00 0.01 0.00 0.00 0.01 0.01 0.01 0.01 0.01 0.01 0.01 0.00 0.00 0.00 0.00 0.00 0.00 0.00 0.01 0.01 0.01 0.01 0.01 0.01 0.01 0.01 0.01 0.01 0.01 0.01 0.01
0.00 0.00 0.00 0.00 0.00 0.00 0.00 0.00 0.00 0.00 0.00 0.00 0.00 0.00 0.00 0.00 0.01 0.01 0.01 0.01 0.01 0.01 0.01 0.01 0.00 0.00 0.00 0.00 0.00 0.00 0.00 0.00 0.00 0.00 0.00 0.00 0.00 0.00 0.00 0.00 0.00 0.00 0.00 0.00
0.00 0.00 0.00 0.00 0.00 0.00 0.00 0.00 0.00 0.00 0.00 0.00 0.00 0.00 0.00 0.00 0.00 0.00 0.00 0.00 0.00 0.01 0.01 0.00 0.00 0.00 0.00 0.00 0.00 0.00 0.00 0.00 0.00 0.00 0.00 0.00 0.00 0.00 0.00 0.00 0.00 0.00 0.00 0.00
0.00 0.00 0.00 0.00 0.00 0.00 0.00 0.00 0.00 0.00 0.00 0.00 0.00 0.00 0.00 0.00 0.00 0.00 0.00 0.00 0.00 0.01 0.01 0.01 0.01 0.00 0.00 0.00 0.00 0.00 0.00 0.00 0.00 0.00 0.00 0.00 0.00 0.00 0.00 0.00 0.00 0.00 0.00 0.00
0.00 0.00 0.00 0.00 0.00 0.00 0.00 0.00 0.00 0.00 0.00 0.00 0.00 0.00 0.00 0.00 0.00 0.00 0.00 0.01 0.01 0.02 0.03 0.02 0.01 0.00 0.00 0.00 0.00 0.00 0.00 0.00 0.00 0.00 0.00 0.00 0.00 0.00 0.00 0.00 0.00 0.00 0.00 0.00
0.00 0.00 0.00 0.00 0.00 0.00 0.00 0.00 0.00 0.00 0.00 0.00 0.00 0.00 0.00 0.00 0.00 0.00 0.01 0.02 0.03 0.05 0.07 0.05 0.02 0.00 0.00 0.00 0.00 0.00 0.00 0.01 0.01 0.00 0.00 0.00 0.00 0.00 0.00 0.00 0.00 0.00 0.00 0.00
0.00 0.00 0.00 0.00 0.00 0.00 0.00 0.00 0.00 0.00 0.00 0.00 0.00 0.00 0.00 0.00 0.00 0.00 0.00 0.02 0.05 0.11 0.14 0.11 0.06 0.02 0.00 0.00 0.00 0.00 0.00 0.00 0.00 0.00 0.00 0.00 0.00 0.00 0.00 0.00 0.00 0.00 0.00 0.00
0.00 0.00 0.00 0.00 0.00 0.00 0.00 0.00 0.00 0.00 0.00 0.00 0.00 0.00 0.00 0.00 0.00 0.00 0.00 0.01 0.05 0.11 0.14 0.13 0.08 0.04 0.01 0.00 0.00 0.00 0.00 0.00 0.00 0.00 0.00 0.00 0.00 0.00 0.00 0.00 0.00 0.00 0.00 0.00
0.00 0.00 0.00 0.00 0.00 0.00 0.00 0.00 0.00 0.00 0.00 0.00 0.00 0.00 0.00 0.00 0.00 0.00 0.00 0.01 0.03 0.07 0.08 0.07 0.05 0.03 0.02 0.01 0.00 0.00 0.00 0.00 0.00 0.00 0.00 0.00 0.00 0.01 0.00 0.00 0.00 0.00 0.00 0.00
0.00 0.00 0.00 0.00 0.00 0.00 0.00 0.00 0.00 0.00 0.00 0.00 0.00 0.00 0.00 0.00 0.00 0.00 0.00 0.01 0.02 0.04 0.05 0.05 0.04 0.03 0.02 0.01 0.00 0.00 0.00 0.00 0.00 0.00 0.00 0.00 0.01 0.01 0.01 0.01 0.00 0.00 0.00 0.00
0.00 0.00 0.00 0.00 0.00 0.00 0.00 0.00 0.00 0.00 0.00 0.00 0.00 0.00 0.00 0.00 0.00 0.00 0.00 0.00 0.02 0.03 0.03 0.03 0.02 0.01 0.01 0.01 0.00 0.00 0.00 0.00 0.00 0.00 0.00 0.00 0.02 0.03 0.03 0.03 0.03 0.02 0.01 0.00
0.00 0.00 0.00 0.00 0.00 0.00 0.00 0.00 0.00 0.00 0.00 0.00 0.00 0.00 0.00 0.00 0.00 0.00 0.00 0.00 0.00 0.00 0.01 0.01 0.01 0.01 0.01 0.01 0.01 0.01 0.01 0.00 0.00 0.00 0.00 0.00 0.01 0.01 0.03 0.05 0.06 0.05 0.03 0.01
0.00 0.00 0.00 0.00 0.00 0.00 0.00 0.00 0.00 0.00 0.00 0.00 0.00 0.00 0.00 0.00 0.00 0.00 0.00 0.00 0.00 0.00 0.00 0.00 0.00 0.01 0.01 0.01 0.01 0.01 0.01 0.01 0.00 0.00 0.00 0.00 0.00 0.00 0.01 0.03 0.04 0.05 0.04 0.03
0.00 0.00 0.00 0.00 0.00 0.00 0.00 0.00 0.00 0.00 0.00 0.00 0.00 0.00 0.00 0.00 0.00 0.00 0.00 0.00 0.00 0.00 0.00 0.00 0.00 0.00 0.00 0.01 0.01 0.00 0.00 0.00 0.00 0.00 0.00 0.00 0.00 0.01 0.01 0.01 0.01 0.02 0.03 0.04
0.00 0.00 0.00 0.00 0.00 0.00 0.00 0.00 0.00 0.00 0.00 0.00 0.00 0.00 0.00 0.00 0.00 0.00 0.00 0.00 0.00 0.00 0.00 0.00 0.00 0.00 0.01 0.01 0.01 0.01 0.02 0.02 0.02 0.03 0.03 0.03 0.03 0.03 0.02 0.02 0.02 0.02 0.02 0.03
0.00 0.00 0.00 0.00 0.00 0.00 0.00 0.00 0.00 0.00 0.00 0.00 0.00 0.00 0.00 0.00 0.00 0.01 0.01 0.01 0.01 0.01 0.02 0.02 0.03 0.03 0.03 0.03 0.03 0.03 0.03 0.03 0.03 0.03 0.03 0.02 0.02 0.01 0.01 0.01 0.01 0.01 0.02 0.03
0.00 0.00 0.00 0.00 0.00 0.00 0.00 0.00 0.00 0.00 0.00 0.00 0.00 0.00 0.00 0.01 0.02 0.03 0.04 0.05 0.05 0.05 0.04 0.03 0.02 0.02 0.01 0.01 0.00 0.00 0.00 0.00 0.00 0.01 0.01 0.01 0.01 0.01 0.00 0.00 0.00 0.01 0.02 0.04
0.00 0.00 0.00 0.00 0.00 0.00 0.00 0.00 0.00 0.00 0.00 0.00 0.00 0.01 0.02 0.02 0.02 0.02 0.03 0.03 0.02 0.01 0.01 0.00 0.00 0.00 0.00 0.00 0.00 0.00 0.00 0.00 0.00 0.00 0.00 0.00 0.00 0.00 0.00 0.00 0.01 0.02 0.03 0.05
0.00 0.00 0.00 0.00 0.00 0.00 0.00 0.00 0.00 0.00 0.01 0.01 0.00 0.00 0.00 0.00 0.00 0.00 0.00 0.00 0.00 0.00 0.00 0.00 0.00 0.00 0.00 0.00 0.00 0.00 0.00 0.00 0.00 0.00 0.00 0.00 0.00 0.00 0.00 0.00 0.01 0.04 0.06 0.07
0.00 0.00 0.00 0.00 0.00 0.00 0.00 0.00 0.00 0.01 0.04 0.01 0.00 0.00 0.00 0.00 0.00 0.00 0.00 0.00 0.00 0.00 0.00 0.00 0.00 0.00 0.00 0.00 0.00 0.00 0.00 0.00 0.00 0.00 0.00 0.00 0.00 0.00 0.00 0.00 0.01 0.03 0.06 0.09
0.00 0.00 0.00 0.00 0.00 0.00 0.00 0.00 0.00 0.00 0.01 0.00 0.00 0.00 0.00 0.00 0.00 0.00 0.00 0.00 0.00 0.00 0.00 0.00 0.00 0.00 0.00 0.00 0.00 0.00 0.00 0.00 0.00 0.00 0.00 0.00 0.00 0.00 0.00 0.01 0.01 0.02 0.04 0.09
0.00 0.00 0.00 0.00 0.00 0.00 0.00 0.00 0.00 0.00 0.00 0.00 0.00 0.00 0.00 0.00 0.00 0.00 0.00 0.00 0.00 0.00 0.00 0.00 0.00 0.00 0.00 0.00 0.00 0.00 0.00 0.00 0.00 0.01 0.01 0.01 0.01 0.01 0.00 0.01 0.01 0.02 0.03 0.07
0.00 0.00 0.00 0.00 0.00 0.00 0.00 0.00 0.00 0.00 0.00 0.00 0.00 0.00 0.00 0.00 0.00 0.00 0.00 0.00 0.00 0.00 0.00 0.00 0.00 0.00 0.00 0.00 0.01 0.01 0.01 0.01 0.01 0.01 0.02 0.02 0.02 0.02 0.01 0.02 0.02 0.02 0.02 0.04
0.00 0.00 0.00 0.00 0.00 0.00 0.00 0.00 0.00 0.00 0.00 0.00 0.00 0.00 0.00 0.00 0.00 0.00 0.00 0.00 0.00 0.00 0.00 0.00 0.00 0.00 0.00 0.01 0.01 0.01 0.01 0.02 0.02 0.03 0.03 0.03 0.03 0.02 0.02 0.02 0.02 0.01 0.01 0.03
0.00 0.00 0.00 0.00 0.00 0.00 0.00 0.00 0.00 0.00 0.00 0.00 0.00 0.00 0.00 0.00 0.00 0.00 0.00 0.00 0.00 0.00 0.00 0.00 0.00 0.01 0.01 0.01 0.02 0.03 0.03 0.05 0.05 0.04 0.04 0.03 0.03 0.02 0.02 0.02 0.02 0.01 0.02 0.03
0.00 0.00 0.00 0.00 0.00 0.00 0.00 0.00 0.00 0.00 0.00 0.00 0.00 0.00 0.00 0.00 0.00 0.00 0.00 0.00 0.00 0.00 0.00 0.00 0.01 0.02 0.02 0.03 0.04 0.05 0.06 0.07 0.07 0.06 0.05 0.04 0.03 0.03 0.03 0.03 0.03 0.02 0.02 0.02
MSLP
1011.66 1011.85 1011.93 1011.92 1011.84 1011.73 1011.62 1011.52 1011.44 1011.34 1011.20 1011.01 1010.75 1010.42 1010.07 1009.71 1009.40 1009.16 1009.02 1008.98 1009.02 1009.11 1009.24 1009.37 1009.51 1009.64 1009.78 1009.94 1010.14 1010.37 1010.64 1010.91 1011.17 1011.38 1011.53 1011.61 1011.63 1011.61 1011.58 1011.55 1011.55 1011.57 1011.63 1011.69
1011.84 1011.98 1012.01 1011.97 1011.90 1011.83 1011.79 1011.77 1011.77 1011.75 1011.66 1011.50 1011.23 1010.86 1010.43 1009.99 1009.57 1009.24 1009.01 1008.90 1008.90 1008.98 1009.11 1009.27 1009.44 1009.61 1009.78 1009.96 1010.16 1010.38 1010.63 1010.87 1011.10 1011.29 1011.43 1011.51 1011.54 1011.53 1011.51 1011.49 1011.48 1011.50 1011.53 1011.57
1011.96 1012.05 1012.06 1012.02 1011.98 1011.97 1012.00 1012.07 1012.15 1012.19 1012.15 1011.99 1011.71 1011.30 1010.80 1010.27 1009.77 1009.35 1009.06 1008.90 1008.87 1008.95 1009.11 1009.30 1009.51 1009.71 1009.90 1010.08 1010.26 1010.44 1010.63 1010.82 1011.00 1011.15 1011.27 1011.34 1011.37 1011.38 1011.37 1011.37 1011.39 1011.42 1011.45 1011.47
1012.02 1012.08 1012.08 1012.06 1012.07 1012.12 1012.22 1012.37 1012.52 1012.61 1012.61 1012.47 1012.17 1011.73 1011.19 1010.61 1010.06 1009.60 1009.27 1009.09 1009.05 1009.15 1009.32 1009.54 1009.77 1009.97 1010.15 1010.30 1010.43 1010.55 1010.66 1010.77 1010.88 1010.96 1011.03 1011.08 1011.12 1011.14 1011.16 1011.20 1011.25 1011.30 1011.35 1011.38
1012.05 1012.09 1012.09 1012.10 1012.14 1012.25 1012.42 1012.63 1012.83 1012.97 1013.01 1012.89 1012.61 1012.18 1011.64 1011.06 1010.51 1010.05 1009.72 1009.55 1009.53 1009.63 1009.81 1010.04 1010.25 1010.43 1010.57 1010.66 1010.71 1010.73 1010.74 1010.75 1010.76 1010.77 1010.78 1010.79 1010.81 1010.85 1010.89 1010.96 1011.05 1011.14 1011.22 1011.27
1012.09 1012.10 1012.10 1012.12 1012.19 1012.33 1012.54 1012.79 1013.04 1013.22 1013.30 1013.24 1013.01 1012.64 1012.17 1011.65 1011.16 1010.76 1010.47 1010.34 1010.34 1010.44 1010.62 1010.81 1010.98 1011.10 1011.16 1011.16 1011.10 1011.01 1010.91 1010.80 1010.71 1010.63 1010.57 1010.53 1010.53 1010.55 1010.61 1010.70 1010.81 1010.93 1011.04 1011.11
1012.17 1012.15 1012.13 1012.14 1012.21 1012.35 1012.57 1012.84 1013.12 1013.35 1013.49 1013.50 1013.38 1013.13 1012.78 1012.39 1012.02 1011.72 1011.52 1011.44 1011.46 1011.57 1011.71 1011.84 1011.94 1011.97 1011.92 1011.80 1011.63 1011.43 1011.20 1010.99 1010.79 1010.62 1010.49 1010.39 1010.33 1010.32 1010.36 1010.44 1010.55 1010.67 1010.79 1010.87
1012.30 1012.24 1012.18 1012.16 1012.20 1012.32 1012.52 1012.79 1013.09 1013.37 1013.59 1013.71 1013.73 1013.64 1013.47 1013.27 1013.06 1012.90 1012.80 1012.78 1012.82 1012.90 1012.99 1013.04 1013.03 1012.95 1012.79 1012.56 1012.28 1011.97 1011.65 1011.35 1011.06 1010.81 1010.60 1010.43 1010.30 1010.22 1010.20 1010.22 1010.29 1010.38 1010.47 1010.54
1012.47 1012.36 1012.26 1012.19 1012.18 1012.25 1012.42 1012.68 1012.99 1013.32 1013.63 1013.89 1014.08 1014.19 1014.23 1014.23 1014.21 1014.20 1014.20 1014.24 1014.28 1014.32 1014.32 1014.27 1014.15 1013.96 1013.69 1013.36 1013.00 1012.62 1012.24 1011.87 1011.52 1011.21 1010.92 1010.67 1010.45 1010.28 1010.16 1010.08 1010.05 1010.07 1010.10 1010.13
1012.66 1012.51 1012.36 1012.23 1012.17 1012.20 1012.33 1012.58 1012.90 1013.29 1013.70 1014.10 1014.46 1014.76 1015.02 1015.21 1015.37 1015.48 1015.58 1015.64 1015.66 1015.64 1015.55 1015.39 1015.16 1014.86 1014.50 1014.11 1013.70 1013.29 1012.88 1012.49 1012.12 1011.76 1011.41 1011.08 1010.76 1010.47 1010.22 1010.01 1009.86 1009.75 1009.69 1009.65
1012.82 1012.65 1012.47 1012.30 1012.21 1012.20 1012.32 1012.56 1012.91 1013.35 1013.86 1014.38 1014.89 1015.37 1015.79 1016.14 1016.42 1016.63 1016.76 1016.82 1016.79 1016.68 1016.49 1016.23 1015.89 1015.51 1015.10 1014.68 1014.26 1013.86 1013.47 1013.09 1012.72 1012.35 1011.96 1011.55 1011.14 1010.72 1010.33 1009.98 1009.68 1009.44 1009.27 1009.14
1012.95 1012.78 1012.59 1012.42 1012.32 1012.31 1012.43 1012.69 1013.08 1013.58 1014.15 1014.78 1015.40 1015.99 1016.52 1016.96 1017.30 1017.53 1017.64 1017.65 1017.54 1017.33 1017.04 1016.67 1016.26 1015.82 1015.39 1014.97 1014.57 1014.21 1013.87 1013.53 1013.19 1012.82 1012.41 1011.95 1011.46 1010.94 1010.42 1009.94 1009.50 1009.14 1008.85 1008.64
1013.03 1012.89 1012.74 1012.61 1012.54 1012.57 1012.72 1013.02 1013.45 1014.00 1014.62 1015.30 1015.97 1016.60 1017.15 1017.60 1017.92 1018.10 1018.14 1018.05 1017.84 1017.52 1017.13 1016.68 1016.20 1015.73 1015.30 1014.90 1014.55 1014.24 1013.96 1013.68 1013.38 1013.03 1012.61 1012.13 1011.59 1011.00 1010.40 1009.81 1009.28 1008.82 1008.45 1008.18
1013.10 1013.02 1012.93 1012.87 1012.88 1012.98 1013.20 1013.56 1014.03 1014.61 1015.25 1015.93 1016.58 1017.18 1017.67 1018.04 1018.26 1018.33 1018.25 1018.04 1017.70 1017.27 1016.78 1016.26 1015.75 1015.26 1014.83 1014.47 1014.16 1013.91 1013.68 1013.45 1013.19 1012.87 1012.47 1011.99 1011.44 1010.83 1010.19 1009.57 1008.98 1008.48 1008.06 1007.75
1013.19 1013.19 1013.20 1013.24 1013.35 1013.55 1013.86 1014.27 1014.79 1015.37 1016.00 1016.62 1017.19 1017.68 1018.05 1018.27 1018.33 1018.25 1018.01 1017.65 1017.19 1016.65 1016.09 1015.51 1014.97 1014.48 1014.06 1013.72 1013.45 1013.22 1013.03 1012.83 1012.60 1012.31 1011.95 1011.50 1010.97 1010.39 1009.77 1009.16 1008.59 1008.09 1007.67 1007.36
1013.37 1013.45 1013.56 1013.72 1013.95 1014.25 1014.64 1015.12 1015.65 1016.22 1016.78 1017.30 1017.74 1018.06 1018.25 1018.28 1018.16 1017.89 1017.49 1016.99 1016.41 1015.79 1015.17 1014.56 1014.01 1013.51 1013.10 1012.76 1012.49 1012.27 1012.08 1011.88 1011.67 1011.40 1011.07 1010.67 1010.20 1009.69 1009.15 1008.61 1008.10 1007.65 1007.27 1006.97
1013.67 1013.84 1014.05 1014.31 1014.64 1015.04 1015.49 1016.00 1016.52 1017.04 1017.51 1017.89 1018.16 1018.30 1018.28 1018.10 1017.78 1017.33 1016.78 1016.16 1015.50 1014.82 1014.16 1013.54 1012.98 1012.48 1012.06 1011.70 1011.41 1011.16 1010.94 1010.73 1010.50 1010.24 1009.95 1009.61 1009.22 1008.81 1008.37 1007.94 1007.53 1007.15 1006.83 1006.58
1014.12 1014.36 1014.64 1014.99 1015.39 1015.84 1016.33 1016.83 1017.31 1017.74 1018.08 1018.31 1018.40 1018.33 1018.10 1017.73 1017.23 1016.64 1015.97 1015.27 1014.55 1013.85 1013.18 1012.57 1012.01 1011.51 1011.06 1010.68 1010.34 1010.03 1009.76 1009.50 1009.25 1008.99 1008.72 1008.44 1008.14 1007.83 1007.52 1007.21 1006.90 1006.62 1006.36 1006.14
1014.72 1014.99 1015.33 1015.71 1016.14 1016.60 1017.07 1017.52 1017.92 1018.24 1018.44 1018.50 1018.40 1018.14 1017.74 1017.20 1016.57 1015.86 1015.12 1014.38 1013.65 1012.95 1012.31 1011.71 1011.16 1010.65 1010.18 1009.75 1009.36 1008.99 1008.65 1008.33 1008.04 1007.77 1007.53 1007.30 1007.08 1006.87 1006.66 1006.45 1006.25 1006.05 1005.85 1005.66
1015.41 1015.70 1016.04 1016.42 1016.83 1017.25 1017.66 1018.03 1018.31 1018.49 1018.54 1018.43 1018.17 1017.75 1017.21 1016.55 1015.82 1015.06 1014.29 1013.53 1012.82 1012.15 1011.54 1010.96 1010.43 1009.92 1009.43 1008.96 1008.50 1008.07 1007.66 1007.29 1006.97 1006.68 1006.45 1006.25 1006.09 1005.96 1005.84 1005.72 1005.59 1005.45 1005.30 1005.13
1016.13 1016.42 1016.74 1017.08 1017.43 1017.76 1018.07 1018.31 1018.46 1018.49 1018.39 1018.13 1017.72 1017.18 1016.53 1015.80 1015.02 1014.24 1013.47 1012.74 1012.06 1011.44 1010.85 1010.31 1009.79 1009.27 1008.76 1008.26 1007.75 1007.27 1006.81 1006.39 1006.03 1005.74 1005.50 1005.33 1005.21 1005.13 1005.06 1005.00 1004.92 1004.83 1004.71 1004.56
1016.83 1017.10 1017.37 1017.63 1017.89 1018.12 1018.29 1018.39 1018.39 1018.27 1018.02 1017.63 1017.11 1016.48 1015.77 1015.00 1014.21 1013.43 1012.68 1011.99 1011.35 1010.76 1010.21 1009.68 1009.17 1008.65 1008.12 1007.58 1007.05 1006.52 1006.03 1005.59 1005.21 1004.90 1004.67 1004.51 1004.41 1004.35 1004.31 1004.28 1004.24 1004.17 1004.08 1003.97
1017.44 1017.67 1017.88 1018.06 1018.21 1018.31 1018.35 1018.30 1018.15 1017.88 1017.50 1017.01 1016.40 1015.71 1014.97 1014.19 1013.40 1012.65 1011.93 1011.27 1010.66 1010.09 1009.55 1009.02 1008.50 1007.97 1007.42 1006.87 1006.31 1005.77 1005.26 1004.81 1004.42 1004.11 1003.88 1003.72 1003.62 1003.57 1003.55 1003.53 1003.51 1003.47 1003.42 1003.36
1017.92 1018.11 1018.26 1018.36 1018.39 1018.37 1018.26 1018.07 1017.78 1017.40 1016.91 1016.33 1015.67 1014.94 1014.18 1013.41 1012.65 1011.91 1011.22 1010.57 1009.96 1009.39 1008.84 1008.30 1007.75 1007.19 1006.62 1006.05 1005.48 1004.93 1004.43 1003.98 1003.60 1003.29 1003.06 1002.90 1002.80 1002.75 1002.73 1002.72 1002.72 1002.73 1002.73 1002.75
1018.26 1018.42 1018.51 1018.52 1018.46 1018.31 1018.08 1017.77 1017.36 1016.87 1016.30 1015.66 1014.97 1014.23 1013.47 1012.71 1011.96 1011.24 1010.55 1009.89 1009.26 1008.66 1008.07 1007.48 1006.89 1006.29 1005.69 1005.10 1004.53 1003.98 1003.49 1003.06 1002.69 1002.39 1002.17 1002.01 1001.91 1001.85 1001.84 1001.85 1001.88 1001.94 1002.02 1002.13
1018.46 1018.58 1018.62 1018.56 1018.42 1018.17 1017.84 1017.43 1016.93 1016.37 1015.74 1015.06 1014.34 1013.60 1012.85 1012.09 1011.35 1010.63 1009.92 1009.24 1008.57 1007.90 1007.25 1006.59 1005.94 1005.29 1004.66 1004.04 1003.46 1002.93 1002.45 1002.04 1001.69 1001.41 1001.20 1001.05 1000.95 1000.89 1000.89 1000.92 1001.00 1001.12 1001.29 1001.51
Thickness
5773 5769 5766 5769 5775 5773 5773 5772 5773 5781 5792 5793 5789 5790 5795 5801 5803 5800 5799 5799 5798 5800 5801 5800 5797 5795 5790 5784 5778 5773 5769 5764 5760 5756 5753 5749 5747 5746 5745 5743 5738 5736 5734 5732
5765 5763 5769 5772 5772 5769 5769 5767 5771 5778 5784 5782 5781 5783 5790 5792 5793 5795 5795 5794 5794 5795 5793 5790 5789 5787 5783 5776 5771 5765 5761 5759 5755 5751 5747 5743 5741 5741 5740 5738 5734 5732 5729 5726
5761 5765 5773 5770 5766 5765 5766 5764 5766 5765 5774 5778 5772 5771 5780 5787 5790 5791 5793 5795 5794 5791 5786 5783 5780 5777 5772 5767 5763 5760 5756 5752 5749 5746 5743 5738 5734 5734 5734 5733 5731 5729 5724 5721
5765 5772 5769 5765 5765 5762 5759 5770 5764 5760 5756 5759 5765 5747 5774 5782 5780 5782 5785 5786 5785 5783 5781 5775 5770 5766 5763 5760 5758 5754 5750 5746 5743 5739 5737 5733 5728 5728 5730 5729 5729 5724 5720 5717
5760 5765 5761 5758 5762 5762 5761 5765 5761 5757 5752 5748 5756 5745 5763 5772 5763 5772 5778 5777 5774 5771 5767 5761 5757 5755 5754 5752 5750 5747 5743 5739 5737 5734 5731 5727 5726 5728 5728 5725 5721 5717 5717 5713
5765 5772 5769 5766 5769 5767 5764 5759 5758 5757 5755 5739 5742 5737 5745 5752 5746 5755 5762 5761 5759 5757 5751 5744 5741 5741 5740 5740 5739 5738 5735 5732 5731 5729 5727 5723 5721 5720 5719 5717 5716 5715 5715 5712
5756 5764 5771 5772 5762 5766 5761 5746 5735 5735 5737 5739 5743 5737 5734 5733 5735 5737 5737 5738 5739 5735 5728 5723 5722 5722 5722 5724 5726 5727 5726 5724 5725 5724 5722 5720 5717 5715 5713 5712 5713 5709 5710 5708
5744 5744 5762 5765 5756 5749 5753 5745 5726 5716 5723 5736 5745 5736 5727 5725 5723 5723 5722 5719 5717 5714 5712 5708 5706 5707 5707 5708 5709 5711 5712 5712 5714 5716 5716 5714 5712 5711 5711 5708 5706 5705 5703 5702
5748 5744 5765 5764 5763 5755 5747 5748 5754 5735 5733 5723 5738 5740 5725 5719 5711 5707 5704 5702 5699 5698 5697 5696 5695 5695 5694 5694 5694 5695 5695 5696 5699 5703 5705 5705 5704 5702 5702 5700 5697 5698 5696 5694
5757 5740 5760 5762 5763 5754 5751 5748 5741 5731 5714 5713 5728 5732 5730 5705 5697 5691 5688 5685 5684 5685 5684 5682 5681 5681 5681 5681 5680 5680 5680 5681 5683 5686 5688 5693 5693 5693 5692 5691 5691 5689 5687 5685
5758 5740 5748 5757 5748 5740 5742 5739 5735 5734 5726 5707 5705 5720 5699 5689 5682 5679 5676 5674 5671 5670 5669 5667 5665 5664 5664 5664 5664 5664 5665 5665 5666 5667 5669 5672 5676 5679 5682 5681 5681 5680 5679 5677
5755 5747 5738 5748 5755 5750 5743 5736 5729 5713 5710 5713 5704 5704 5685 5676 5670 5665 5662 5660 5659 5658 5657 5656 5654 5652 5650 5648 5647 5647 5646 5647 5647 5648 5649 5651 5655 5660 5664 5668 5670 5670 5669 5670
5750 5737 5726 5736 5738 5741 5737 5734 5728 5720 5710 5706 5699 5690 5669 5660 5653 5648 5645 5644 5644 5644 5644 5642 5640 5638 5635 5632 5630 5629 5628 5628 5628 5629 5629 5631 5634 5638 5644 5650 5655 5658 5660 5661
5747 5737 5727 5719 5727 5733 5728 5727 5723 5713 5706 5703 5700 5681 5653 5642 5634 5630 5627 5625 5624 5624 5624 5622 5620 5618 5615 5612 5610 5609 5608 5607 5608 5609 5609 5611 5613 5618 5623 5630 5637 5643 5648 5651
5743 5736 5737 5737 5739 5732 5718 5708 5705 5700 5692 5687 5678 5659 5637 5628 5622 5617 5614 5611 5610 5609 5607 5605 5603 5601 5598 5596 5593 5591 5590 5590 5590 5591 5591 5593 5596 5601 5607 5612 5619 5627 5633 5639
5739 5729 5729 5727 5732 5722 5698 5685 5683 5672 5667 5662 5650 5634 5628 5620 5612 5606 5603 5601 5601 5601 5601 5599 5596 5593 5590 5587 5584 5580 5578 5576 5576 5576 5577 5577 5578 5582 5588 5593 5600 5608 5616 5624
5734 5720 5716 5719 5722 5710 5682 5659 5659 5651 5645 5644 5633 5623 5617 5609 5603 5602 5604 5604 5600 5596 5592 5588 5583 5579 5576 5574 5571 5569 5567 5564 5562 5561 5562 5562 5563 5565 5569 5574 5580 5587 5596 5606
5719 5714 5712 5712 5707 5687 5653 5658 5650 5641 5636 5630 5620 5613 5609 5606 5606 5603 5599 5594 5586 5578 5571 5565 5561 5557 5555 5553 5551 5550 5549 5546 5545 5545 5545 5545 5545 5547 5551 5554 5558 5565 5573 5584
5715 5707 5707 5700 5694 5668 5652 5650 5641 5632 5631 5624 5613 5612 5608 5604 5597 5595 5587 5571 5558 5552 5547 5543 5540 5538 5536 5534 5533 5533 5533 5530 5529 5528 5527 5528 5527 5529 5531 5533 5538 5544 5551 5562
5713 5706 5699 5687 5674 5667 5644 5641 5640 5633 5624 5615 5609 5601 5594 5585 5577 5576 5562 5548 5540 5534 5531 5530 5530 5529 5529 5528 5527 5526 5526 5525 5523 5522 5521 5520 5518 5517 5516 5517 5520 5524 5531 5540
5693 5692 5682 5674 5669 5650 5639 5640 5637 5622 5618 5611 5600 5589 5577 5565 5553 5548 5542 5535 5529 5527 5527 5527 5527 5526 5524 5522 5520 5520 5519 5519 5518 5517 5516 5515 5514 5512 5510 5509 5510 5511 5515 5524
5679 5678 5669 5665 5655 5639 5634 5628 5616 5608 5605 5595 5585 5575 5564 5552 5542 5533 5528 5526 5526 5527 5527 5526 5524 5522 5518 5514 5511 5512 5511 5510 5509 5508 5507 5507 5508 5508 5508 5508 5507 5506 5507 5512
5671 5660 5659 5650 5646 5637 5629 5617 5612 5603 5593 5583 5572 5562 5549 5538 5531 5528 5526 5526 5526 5525 5524 5521 5518 5515 5511 5506 5502 5502 5502 5499 5497 5496 5496 5497 5499 5501 5502 5503 5503 5503 5504 5507
5661 5653 5649 5641 5641 5633 5623 5616 5606 5593 5581 5571 5559 5548 5536 5528 5526 5525 5525 5525 5524 5523 5520 5515 5511 5507 5504 5500 5497 5494 5493 5489 5486 5484 5484 5485 5489 5493 5496 5499 5502 5506 5508 5511
5655 5647 5639 5633 5630 5621 5617 5604 5593 5583 5572 5561 5549 5537 5526 5522 5522 5522 5523 5523 5521 5519 5515 5509 5503 5499 5496 5492 5489 5486 5483 5479 5476 5473 5472 5472 5477 5483 5489 5495 5500 5506 5509 5512
5651 5640 5630 5623 5618 5607 5602 5594 5584 5575 5564 5554 5542 5532 5524 5519 5520 5521 5521 5520 5517 5514 5510 5503 5496 5490 5486 5482 5480 5478 5474 5469 5465 5462 5462 5462 5466 5472 5481 5489 5497 5501 5502 5504